Latest Conditions
At L.F.Wade Int. Airport
Recorded at 7:55 pm
Showers
Temp.: 
28°C/82°F
Humidity: 
78%
Wind: 
NNW 8KT
or 9mph
UV Index: 
0
Island Observations
 
Observations
Monday, August 21, 2017

Observations are in local time and taken at least once an hour, or upon the start and end of specified events such as showers and thunderstorms.

Time Sky / Weather Wind Speed/Gusts Temp. R.H. Pressure
     knots (mph)  °C (°F)  %  mb / "Hg
 19:55 Mostly Cloudy Showers NNW 8/0 (9/0) 28(82) 78 1021 / 30.14
 19:30 Mostly Cloudy Showers NW 6/0 (7/0) 28(82) 79 1021 / 30.14
 18:55 Partly Cloudy  NNW 7/0 (8/0) 28(83) 76 1021 / 30.14
 17:55 Mostly Cloudy  NNW 8/0 (9/0) 29(84) 73 1021 / 30.14
 16:55 Mostly Cloudy  NNW 8/0 (9/0) 28(83) 74 1020 / 30.13
 15:55 Mostly Cloudy  NNW 8/0 (9/0) 29(83) 72 1021 / 30.14
 14:55 Mostly Cloudy  SSW 6/0 (7/0) 29(85) 71 1021 / 30.16
 13:55 Mostly Cloudy  W 4/0 (5/0) 29(85) 75 1022 / 30.19
 13:43 Mostly Cloudy  WSW 5/0 (6/0) 29(84) 76 1022 / 30.19
 13:19 Mostly Cloudy Showers W 2/0 (2/0) 28(82) 81 1023 / 30.20
 12:55 Mostly Cloudy Thunderstorm W 3/0 (3/0) 26(79) 85 1023 / 30.20
 12:39 Mostly Cloudy Thunderstorm Calm 26(78) 83 1023 / 30.20
 12:27 Mostly Cloudy Thunderstorm ESE 2/0 (2/0) 26(79) 85 1023 / 30.20
 12:17 Overcast Showers N 4/0 (5/0) 26(79) 84 1023 / 30.20
 12:04 Overcast Thunderstorm W 2/0 (2/0) 27(81) 81 1023 / 30.21
 11:55 Mostly Cloudy Thunderstorm WSW 4/0 (5/0) 28(82) 83 1023 / 30.21
 11:27 Mostly Cloudy Thunderstorm W 5/0 (6/0) 25(78) 87 1023 / 30.21
 11:17 Mostly Cloudy Thunderstorm W 5/0 (6/0) 25(77) 88 1023 / 30.22
 10:57 Mostly Cloudy Showers WNW 9/0 (10/0) 25(76) 90 1023 / 30.21
 10:55 Mostly Cloudy Showers NW 13/0 (15/0) 25(76) 90 1023 / 30.22
 10:34 Overcast Showers NNW 14/0 (16/0) 26(78) 85 1023 / 30.21
 10:26 Overcast Showers NNW 14/0 (16/0) 27(80) 81 1023 / 30.21
 09:55 Mostly Cloudy  NW 7/0 (8/0) 29(83) 76 1023 / 30.20
 09:30 Mostly Cloudy  NNW 7/0 (8/0) 28(83) 74 1023 / 30.20
 08:55 Mostly Cloudy  NNW 9/0 (10/0) 28(82) 78 1023 / 30.20
 07:55 Partly Cloudy  NW 8/0 (9/0) 27(81) 82 1022 / 30.19
 07:07 Mostly Cloudy  NW 9/0 (10/0) 27(81) 81 1022 / 30.18
 06:55 Mostly Cloudy Showers NW 8/0 (9/0) 27(81) 81 1022 / 30.18
 06:22 Mostly Cloudy Showers NW 10/0 (12/0) 27(81) 77 1022 / 30.17
 06:09 Mostly Cloudy Showers NW 8/0 (9/0) 27(81) 80 1022 / 30.17
 06:01 Mostly Cloudy Showers NW 6/0 (7/0) 28(82) 78 1022 / 30.17
 05:55 Mostly Cloudy Showers NNW 6/0 (7/0) 28(82) 78 1022 / 30.17
 05:17 Mostly Cloudy Showers NW 7/0 (8/0) 28(82) 78 1021 / 30.16
 05:06 Mostly Cloudy Showers NW 7/0 (8/0) 28(82) 78 1021 / 30.16
 04:55 Mostly Cloudy  NW 8/0 (9/0) 27(81) 77 1021 / 30.16
 03:55 Partly Cloudy  NW 9/0 (10/0) 27(81) 77 1021 / 30.16
 02:55 Partly Cloudy  WNW 9/0 (10/0) 28(82) 75 1022 / 30.17
 01:55 Partly Cloudy  WNW 8/0 (9/0) 27(81) 77 1022 / 30.18
 00:55 Partly Cloudy  W 7/0 (8/0) 28(82) 77 1022 / 30.19
 23:55 Partly Cloudy  W 9/0 (10/0) 28(82) 75 1022 / 30.19
 23:24 Partly Cloudy Showers W 5/0 (6/0) 27(81) 81 1022 / 30.19
 23:09 Partly Cloudy Showers WSW 8/0 (9/0) 27(81) 80 1022 / 30.19
 22:55 Partly Cloudy  NW 3/0 (3/0) 27(81) 80 1022 / 30.19
 21:55 Few Clouds  NNW 3/0 (3/0) 27(81) 81 1022 / 30.18
 20:55 Partly Cloudy  WNW 6/0 (7/0) 28(82) 76 1022 / 30.17
 19:55 Partly Cloudy  WNW 8/0 (9/0) 28(83) 76 1021 / 30.16
 18:55 Mostly Cloudy  NW 10/0 (12/0) 28(83) 74 1021 / 30.16
 17:55 Partly Cloudy  WNW 11/0 (13/0) 29(85) 71 1022 / 30.17
 16:55 Few Clouds  WNW 12/0 (14/0) 29(85) 68 1021 / 30.16
 15:55 Few Clouds  W 13/0 (15/0) 30(86) 69 1021 / 30.16
 14:55 Partly Cloudy Showers WNW 13/0 (15/0) 30(86) 68 1022 / 30.17
 13:55 Mostly Cloudy Showers W 14/0 (16/0) 30(85) 73 1022 / 30.17
 12:55 Partly Cloudy  W 12/0 (14/0) 30(85) 69 1022 / 30.17
 11:55 Partly Cloudy Showers W 12/0 (14/0) 30(85) 73 1022 / 30.17
 10:55 Partly Cloudy  W 11/0 (13/0) 29(85) 73 1022 / 30.17
 09:55 Few Clouds  W 10/0 (12/0) 29(84) 72 1021 / 30.15
 08:55 Few Clouds Showers W 8/0 (9/0) 28(83) 74 1021 / 30.15
 07:55 Few Clouds Showers W 8/0 (9/0) 28(82) 76 1020 / 30.13
 06:55 Partly Cloudy  WNW 10/0 (12/0) 27(81) 78 1020 / 30.12
 05:55 Partly Cloudy Showers W 10/0 (12/0) 27(81) 80 1019 / 30.10
 05:19 Partly Cloudy Showers W 8/0 (9/0) 27(81) 81 1019 / 30.10
 05:07 Mostly Cloudy Showers WSW 8/0 (9/0) 27(81) 81 1019 / 30.10
 04:55 Partly Cloudy  W 8/0 (9/0) 27(81) 80 1019 / 30.10
 03:55 Partly Cloudy  W 8/0 (9/0) 27(81) 79 1019 / 30.10
 02:55 Partly Cloudy  WNW 7/0 (8/0) 27(81) 80 1019 / 30.09
 01:55 Partly Cloudy  WNW 9/0 (10/0) 27(81) 79 1020 / 30.11
 00:55 Partly Cloudy  WNW 8/0 (9/0) 27(81) 79 1020 / 30.11
 23:55 Partly Cloudy  W 8/0 (9/0) 27(81) 80 1020 / 30.11
 22:55 Partly Cloudy  WNW 8/0 (9/0) 27(81) 79 1019 / 30.10
 21:55 Partly Cloudy  WNW 9/0 (10/0) 28(82) 77 1019 / 30.10
 20:55 Partly Cloudy  W 8/0 (9/0) 28(82) 76 1019 / 30.08
 19:55 Mostly Cloudy  WNW 10/0 (12/0) 28(82) 76 1019 / 30.08
 18:55 Mostly Cloudy  WNW 10/0 (12/0) 28(83) 77 1018 / 30.07
 17:55 Partly Cloudy  WNW 10/0 (12/0) 29(84) 74 1018 / 30.06
 16:55 Few Clouds  W 10/0 (12/0) 29(84) 72 1018 / 30.07
 15:55 Few Clouds  WNW 12/0 (14/0) 29(85) 69 1018 / 30.07
 14:55 Few Clouds  WNW 12/0 (14/0) 30(85) 71 1019 / 30.08
 13:55 Mostly Cloudy  W 13/0 (15/0) 29(85) 74 1019 / 30.08
 12:55 Mostly Cloudy  W 12/0 (14/0) 29(84) 76 1019 / 30.09
 11:55 Partly Cloudy  WNW 15/0 (17/0) 29(84) 76 1019 / 30.08
 10:55 Partly Cloudy  W 12/0 (14/0) 28(83) 76 1018 / 30.07
 10:10 Mostly Cloudy Showers NW 14/0 (16/0) 27(80) 78 1018 / 30.07
 10:03 Mostly Cloudy Showers WNW 13/0 (15/0) 28(82) 79 1018 / 30.07
 09:55 Mostly Cloudy Showers WNW 13/0 (15/0) 28(82) 76 1018 / 30.07
 08:55 Mostly Cloudy Showers W 12/0 (14/0) 27(81) 82 1018 / 30.06
 07:55 Mostly Cloudy Showers W 12/0 (14/0) 25(77) 88 1018 / 30.06
 07:41 Mostly Cloudy Showers W 13/0 (15/0) 24(76) 87 1018 / 30.06
 07:34 Mostly Cloudy Showers WNW 12/0 (14/0) 25(76) 87 1018 / 30.06
 07:16 Mostly Cloudy Showers NW 16/0 (18/0) 24(74) 88 1018 / 30.05
 06:58 Mostly Cloudy Showers WNW 15/0 (17/0) 24(76) 87 1018 / 30.05
 06:55 Mostly Cloudy Showers NW 10/0 (12/0) 26(78) 82 1017 / 30.04
 06:42 Mostly Cloudy Showers NW 10/21 (12/24) 25(78) 85 1017 / 30.04
 06:17 Mostly Cloudy Showers WSW 19/0 (22/0) 26(79) 83 1017 / 30.03
 06:04 Overcast Showers W 19/0 (22/0) 26(79) 83 1017 / 30.03
 05:55 Mostly Cloudy Showers W 17/0 (20/0) 27(81) 82 1017 / 30.03
 04:55 Mostly Cloudy Showers W 18/0 (21/0) 27(80) 83 1017 / 30.04
 03:55 Mostly Cloudy Showers W 16/0 (18/0) 26(79) 81 1017 / 30.04
 02:55 Overcast Showers WNW 17/0 (20/0) 25(78) 90 1017 / 30.04
 02:19 Mostly Cloudy Showers WSW 13/0 (15/0) 27(80) 85 1018 / 30.05
 02:04 Mostly Cloudy Showers W 14/0 (16/0) 27(81) 82 1018 / 30.05
Observations from our AWOS sites are available here (password and username are both 'guest').